This is the latest recevied weather packets stored in our database for station/object HB9KBJ-8. If no packets are shown the sender has not sent any weather packets the latest 10 day(s).
| Time | Temp. | Humidity | Pressure | Rain* | Wind** | Luminosity | Snow |
|---|---|---|---|---|---|---|---|
| 1778214738 | 6.67° C | 88% | 1015.3 hPa | 0 mm | - | 30 W/m² | - |
| 1778214435 | 6.67° C | 88% | 1015.3 hPa | 0 mm | - | 26 W/m² | - |
| 1778214138 | 6.67° C | 88% | 1015.3 hPa | 0 mm | - | 18 W/m² | - |
| 1778213837 | 6.67° C | 88% | 1015.2 hPa | 0 mm | - | 11 W/m² | - |
| 1778213537 | 6.67° C | 88% | 1015.2 hPa | 0 mm | - | 7 W/m² | - |
| 1778213242 | 6.67° C | 88% | 1015.2 hPa | 0 mm | - | 5 W/m² | - |
| 1778212950 | 7.22° C | 88% | 1015.2 hPa | 0 mm | - | 0 W/m² | - |
| 1778212647 | 7.22° C | 88% | 1015.2 hPa | 0 mm | - | 0 W/m² | - |
| 1778212343 | 7.22° C | 88% | 1015.2 hPa | 0 mm | - | 0 W/m² | - |
| 1778212050 | 7.22° C | 88% | 1015.3 hPa | 0 mm | - | 0 W/m² | - |
| 1778211750 | 7.22° C | 88% | 1015.2 hPa | 0 mm | - | 0 W/m² | - |
| 1778211448 | 7.22° C | 88% | 1015.2 hPa | 0 mm | - | 0 W/m² | - |
| 1778211135 | 7.22° C | 88% | 1015.3 hPa | 0 mm | - | 0 W/m² | - |
| 1778210832 | 7.22° C | 88% | 1015.3 hPa | 0 mm | - | 0 W/m² | - |
| 1778210535 | 7.22° C | 88% | 1015.3 hPa | 0 mm | - | 0 W/m² | - |
| 1778210237 | 7.22° C | 88% | 1015.2 hPa | 0 mm | - | 0 W/m² | - |
| 1778209936 | 7.22° C | 88% | 1015.2 hPa | 0 mm | - | 0 W/m² | - |
| 1778209654 | 7.22° C | 88% | 1015.1 hPa | 0 mm | - | 0 W/m² | - |
| 1778209333 | 7.22° C | 88% | 1014.9 hPa | 0 mm | - | 0 W/m² | - |
| 1778209036 | 7.22° C | 88% | 1015 hPa | 0 mm | - | 0 W/m² | - |
| 1778208736 | 7.22° C | 88% | 1015 hPa | 0 mm | - | 0 W/m² | - |
| 1778208436 | 7.22° C | 88% | 1014.9 hPa | 0 mm | - | 0 W/m² | - |
| 1778208136 | 7.78° C | 88% | 1014.8 hPa | 0 mm | - | 0 W/m² | - |
| 1778207836 | 7.78° C | 88% | 1014.8 hPa | 0 mm | - | 0 W/m² | - |
| 1778207536 | 7.78° C | 88% | 1014.8 hPa | 0 mm | - | 0 W/m² | - |
* Rain latest hour (hover to see other rain measurements)
** Current wind speed in m/s (hover to see current wind gust speed)